GW0175 Weather Reports


time (UTC)temp
C
wind
direction
speed
KPH
gust
KPH
rain 1hr
cm
rain 24hr
cm
rain mn
cm
humidity
%
barometer
mb
20260504070114 16 180 0.0 4.8 0.00 0.00 0.00 69 1011.0
20260504050503 16 132 0.0 4.8 0.00 0.00 0.00 68 1011.2
20260504045959 16 140 0.0 4.8 0.00 0.00 0.00 66 1011.0
20260504045455 17 112 3.2 4.8 0.00 0.00 0.00 64 1011.2
20260504044951 17 145 0.0 4.8 0.00 0.00 0.00 63 1011.0
20260504044449 17 156 3.2 4.8 0.00 0.00 0.00 62 1011.2
20260504043946 17 159 3.2 6.4 0.00 0.00 0.00 61 1011.0
20260504043443 18 154 4.8 8.0 0.00 0.00 0.00 60 1011.1
20260504042941 17 175 0.0 6.4 0.00 0.00 0.00 60 1011.2
20260504042437 18 158 3.2 4.8 0.00 0.00 0.00 60 1011.3
20260504041934 18 154 3.2 4.8 0.00 0.00 0.00 60 1011.3
20260504041430 18 166 1.6 4.8 0.00 0.00 0.00 59 1011.4
20260504040926 18 159 4.8 4.8 0.00 0.00 0.00 58 1011.2
20260504040424 18 172 0.0 4.8 0.00 0.00 0.00 58 1011.2
20260504035920 18 160 1.6 6.4 0.00 0.00 0.00 57 1011.4
20260504035417 18 149 4.8 6.4 0.00 0.00 0.00 56 1011.2
20260504034914 18 186 0.0 6.4 0.00 0.00 0.00 56 1011.3
20260504034412 18 180 3.2 9.7 0.00 0.00 0.00 57 1011.4
20260504033908 18 220 4.8 9.7 0.00 0.00 0.00 60 1011.4
20260504033406 18 210 3.2 8.0 0.00 0.00 0.00 60 1011.4
20260504032903 18 237 3.2 4.8 0.00 0.00 0.00 59 1011.2
20260504032400 18 236 3.2 6.4 0.00 0.00 0.00 58 1011.4
20260504031856 18 227 0.0 8.0 0.00 0.00 0.00 59 1011.2
20260504031353 17 251 0.0 3.2 0.00 0.00 0.00 62 1011.4
20260504030850 18 151 0.0 3.2 0.00 0.00 0.00 61 1011.3
20260504030347 18 152 3.2 3.2 0.00 0.00 0.00 58 1011.4
20260504025843 18 187 0.0 3.2 0.00 0.00 0.00 58 1011.1
20260504025340 19 140 3.2 3.2 0.00 0.00 0.00 57 1010.9
20260504024837 19 180 0.0 3.2 0.00 0.00 0.00 56 1010.8
20260504024333 19 166 0.0 3.2 0.00 0.00 0.00 56 1010.8
20260504023830 19 180 0.0 3.2 0.00 0.00 0.00 55 1010.9
20260504023327 19 234 1.6 3.2 0.00 0.00 0.00 53 1011.0
20260504022823 20 229 3.2 4.8 0.00 0.00 0.00 53 1011.0
20260504022320 20 180 0.0 4.8 0.00 0.00 0.00 53 1010.7
20260504021816 20 111 0.0 3.2 0.00 0.00 0.00 52 1010.6
20260504021314 20 270 0.0 4.8 0.00 0.00 0.00 52 1010.6
20260504020811 20 243 0.0 4.8 0.00 0.00 0.00 52 1010.3
20260504020308 20 140 3.2 4.8 0.00 0.00 0.00 51 1010.8
20260504015803 21 167 0.0 6.4 0.00 0.00 0.00 51 1010.6
20260504015300 21 154 3.2 11.3 0.00 0.00 0.00 50 1010.7
20260504014755 21 180 3.2 9.7 0.00 0.00 0.00 49 1010.2
20260504014252 21 205 4.8 9.7 0.00 0.00 0.00 49 1010.4
20260504013750 21 202 4.8 8.0 0.00 0.00 0.00 49 1010.2
20260504013248 21 162 4.8 9.7 0.00 0.00 0.00 48 1010.6
20260504012743 21 181 8.0 11.3 0.00 0.00 0.00 48 1010.4
20260504012242 22 167 4.8 6.4 0.00 0.00 0.00 47 1010.3
20260504011738 22 178 4.8 8.0 0.00 0.00 0.00 47 1010.7
20260504011235 22 227 4.8 9.7 0.00 0.00 0.00 47 1010.4
20260504010731 22 204 3.2 6.4 0.00 0.00 0.00 46 1010.6
20260504010227 22 215 1.6 8.0 0.00 0.00 0.00 46 1010.6
20260504005724 22 230 6.4 6.4 0.00 0.00 0.00 46 1010.6
20260504005221 23 241 4.8 11.3 0.00 0.00 0.00 45 1010.7
20260504004719 23 204 3.2 9.7 0.00 0.00 0.00 45 1010.9
20260504004215 23 171 3.2 8.0 0.00 0.00 0.00 44 1010.6
20260504003712 23 234 8.0 11.3 0.00 0.00 0.00 41 1010.6
20260504003209 24 238 6.4 6.4 0.00 0.00 0.00 39 1010.7
20260504002706 24 253 4.8 8.0 0.00 0.00 0.00 39 1010.6
20260504002203 24 258 8.0 11.3 0.00 0.00 0.00 38 1010.7
20260504001701 24 241 8.0 12.9 0.00 0.00 0.00 37 1010.8
20260504001157 24 227 4.8 12.9 0.00 0.00 0.00 37 1010.9
20260504000654 24 237 8.0 11.3 0.00 0.00 0.00 36 1010.9
20260504000151 24 249 9.7 12.9 0.00 0.00 0.00 37 1010.9
20260503235649 25 218 4.8 11.3 0.00 0.00 0.00 36 1010.8
20260503235145 25 258 8.0 11.3 0.00 0.00 0.00 36 1011.0
20260503234644 25 270 0.0 8.0 0.00 0.00 0.00 35 1011.0
20260503234141 25 203 3.2 11.3 0.00 0.00 0.00 38 1011.2
20260503233638 25 208 0.0 8.0 0.00 0.00 0.00 39 1011.3
20260503233133 25 164 8.0 17.7 0.00 0.00 0.00 40 1011.2
20260503232631 24 159 14.5 17.7 0.00 0.00 0.00 41 1011.1
20260503232128 24 250 6.4 17.7 0.00 0.00 0.00 41 1011.1
20260503231626 24 181 8.0 20.9 0.00 0.00 0.00 42 1011.3
20260503231122 24 192 6.4 19.3 0.00 0.00 0.00 42 1011.5
20260503230619 24 152 3.2 19.3 0.00 0.00 0.00 42 1011.4
20260503230116 24 153 6.4 14.5 0.00 0.00 0.00 42 1011.3
20260503225614 25 225 4.8 12.9 0.00 0.00 0.00 41 1011.3
20260503225113 24 161 4.8 14.5 0.00 0.00 0.00 42 1011.4
20260503224611 24 151 9.7 20.9 0.00 0.00 0.00 42 1011.6
20260503224109 23 195 8.0 22.5 0.00 0.00 0.00 43 1011.6
20260503223607 23 159 11.3 25.7 0.00 0.00 0.00 43 1011.6
20260503223102 23 167 8.0 27.4 0.00 0.00 0.00 43 1011.4
20260503222600 23 175 8.0 14.5 0.00 0.00 0.00 43 1011.5
20260503222058 24 160 16.1 16.1 0.00 0.00 0.00 42 1011.8
20260503221556 24 161 8.0 22.5 0.00 0.00 0.00 42 1011.5
20260503221053 24 179 11.3 22.5 0.00 0.00 0.00 42 1011.6
20260503220549 23 173 0.0 17.7 0.00 0.00 0.00 42 1011.9
20260503220046 24 202 8.0 17.7 0.00 0.00 0.00 41 1012.2
20260503215543 24 155 12.9 25.7 0.00 0.00 0.00 41 1012.2
20260503215040 25 165 6.4 14.5 0.00 0.00 0.00 40 1012.3
20260503214539 24 155 11.3 22.5 0.00 0.00 0.00 40 1012.5
20260503214035 25 237 9.7 20.9 0.00 0.00 0.00 40 1012.5
20260503213533 25 131 6.4 24.1 0.00 0.00 0.00 40 1012.9
20260503213029 24 170 8.0 17.7 0.00 0.00 0.00 42 1012.7
20260503212527 23 172 14.5 24.1 0.00 0.00 0.00 42 1012.9
20260503212024 23 173 9.7 25.7 0.00 0.00 0.00 42 1012.9
20260503211521 23 184 6.4 19.3 0.00 0.00 0.00 41 1013.2
20260503211017 23 152 14.5 14.5 0.00 0.00 0.00 42 1013.5
20260503210514 23 152 11.3 17.7 0.00 0.00 0.00 42 1013.3
20260503210009 23 169 3.2 11.3 0.00 0.00 0.00 43 1013.8
20260503205506 23 166 16.1 16.1 0.00 0.00 0.00 43 1013.8
20260503205003 23 163 14.5 17.7 0.00 0.00 0.00 43 1014.1
20260503204500 23 128 8.0 17.7 0.00 0.00 0.00 42 1013.8
20260503203956 23 165 14.5 25.7 0.00 0.00 0.00 41 1014.2
20260503203454 23 194 8.0 14.5 0.00 0.00 0.00 43 1014.3
20260503202950 23 164 11.3 20.9 0.00 0.00 0.00 42 1014.3
20260503202449 23 160 6.4 12.9 0.00 0.00 0.00 42 1014.5
20260503201947 23 155 6.4 22.5 0.00 0.00 0.00 43 1014.5
20260503201444 23 169 9.7 16.1 0.00 0.00 0.00 42 1014.7
20260503200941 23 196 11.3 17.7 0.00 0.00 0.00 43 1014.8
20260503200438 23 174 11.3 17.7 0.00 0.00 0.00 44 1014.7
20260503195934 22 220 11.3 17.7 0.00 0.00 0.00 43 1014.7
20260503195432 22 189 8.0 20.9 0.00 0.00 0.00 43 1014.8
20260503194928 22 134 11.3 16.1 0.00 0.00 0.00 44 1015.1
20260503194425 22 157 12.9 19.3 0.00 0.00 0.00 44 1015.1
20260503193920 22 162 17.7 17.7 0.00 0.00 0.00 44 1015.0
20260503193416 22 185 12.9 19.3 0.00 0.00 0.00 44 1015.3
20260503192912 22 180 16.1 19.3 0.00 0.00 0.00 45 1015.3
20260503192408 22 176 20.9 20.9 0.00 0.00 0.00 45 1015.6
20260503191904 22 231 8.0 19.3 0.00 0.00 0.00 46 1015.4
20260503191402 21 153 12.9 20.9 0.00 0.00 0.00 46 1015.6
20260503190858 22 182 4.8 16.1 0.00 0.00 0.00 46 1015.7
20260503190355 21 180 6.4 24.1 0.00 0.00 0.00 46 1015.7
20260503185852 21 156 11.3 22.5 0.00 0.00 0.00 45 1015.9
20260503185348 21 181 12.9 17.7 0.00 0.00 0.00 46 1016.0
20260503184848 22 168 16.1 22.5 0.00 0.00 0.00 46 1016.2
20260503184344 21 184 11.3 24.1 0.00 0.00 0.00 46 1016.3
20260503183840 21 227 9.7 20.9 0.00 0.00 0.00 46 1016.3
20260503183338 21 165 6.4 17.7 0.00 0.00 0.00 45 1016.6
20260503182835 21 180 6.4 20.9 0.00 0.00 0.00 45 1016.6
20260503182334 21 178 11.3 17.7 0.00 0.00 0.00 46 1016.8
20260503181831 21 143 11.3 20.9 0.00 0.00 0.00 46 1017.0
20260503181328 21 118 4.8 19.3 0.00 0.00 0.00 45 1016.9
20260503180824 21 168 6.4 22.5 0.00 0.00 0.00 46 1017.0
20260503180322 21 270 4.8 16.1 0.00 0.00 0.00 46 1017.0
20260503175818 20 212 4.8 17.7 0.00 0.00 0.00 46 1017.1
20260503175317 20 173 8.0 17.7 0.00 0.00 0.00 46 1017.1
20260503174812 21 178 6.4 20.9 0.00 0.00 0.00 47 1017.3
20260503174311 20 180 16.1 20.9 0.00 0.00 0.00 47 1017.6
20260503173806 20 200 9.7 17.7 0.00 0.00 0.00 48 1017.6
20260503173302 20 165 9.7 20.9 0.00 0.00 0.00 47 1017.6
20260503172759 20 195 8.0 20.9 0.00 0.00 0.00 48 1017.7
20260503172256 21 154 16.1 17.7 0.00 0.00 0.00 47 1018.0
20260503171752 20 175 9.7 17.7 0.00 0.00 0.00 46 1018.2
20260503171249 20 175 4.8 17.7 0.00 0.00 0.00 47 1018.3
20260503170746 20 218 6.4 17.7 0.00 0.00 0.00 48 1018.2
20260503170243 20 198 14.5 17.7 0.00 0.00 0.00 49 1018.5
20260503160205 17 192 9.7 17.7 0.00 0.00 0.00 60 1018.8
20260503150635 15 156 0.0 6.4 0.00 0.00 0.00 71 1019.5
20260503150131 15 114 3.2 6.4 0.00 0.00 0.00 73 1019.4
20260503131025 9 180 0.0 3.2 0.00 0.00 0.00 92 1019.6
20260503130522 8 168 0.0 4.8 0.00 0.00 0.00 92 1019.5
20260503110407 8 180 0.0 0.0 0.00 0.00 0.00 92 1018.8
20260503090258 9 3 0.0 4.8 0.00 0.00 0.00 91 1019.3
20260503081225 10 172 0.0 0.0 0.00 0.00 0.00 90 1019.4
20260503080721 10 157 0.0 3.2 0.00 0.00 0.00 90 1019.3
20260503080218 10 120 0.0 0.0 0.00 0.00 0.00 90 1019.4
20260503072655 11 151 0.0 3.2 0.00 0.00 0.00 89 1019.6
20260503072151 11 254 0.0 1.6 0.00 0.00 0.00 89 1019.8
20260503071648 11 270 0.0 3.2 0.00 0.00 0.00 89 1019.6